BX2AEA-13 Weather Reports


time (UTC)temp
C
wind
direction
speed
KPH
gust
KPH
rain 1hr
cm
rain 24hr
cm
rain mn
cm
humidity
%
barometer
mb
20260505153034 27 0 0.0 0.0 0.00 0.58 0.00 54 1008.3
20260505152447 27 0 0.0 0.0 0.00 0.58 0.00 54 1008.4
20260505151900 27 0 0.0 0.0 0.00 0.58 0.00 54 1008.5
20260505151313 27 0 0.0 0.0 0.00 0.58 0.00 54 1008.6
20260505150726 27 0 0.0 0.0 0.00 0.58 0.00 54 1008.7
20260505150139 27 0 0.0 1.6 0.00 0.58 0.00 54 1008.6
20260505140349 28 270 0.0 1.6 0.00 0.58 0.00 54 1009.0
20260505124837 28 315 0.0 0.0 0.00 0.58 0.00 52 1008.6
20260505124250 28 315 0.0 0.0 0.00 0.58 0.00 52 1008.6
20260505123703 28 315 0.0 1.6 0.00 0.58 0.00 52 1008.3
20260505123116 28 0 0.0 1.6 0.00 0.58 0.00 52 1008.5
20260505122529 28 45 0.0 1.6 0.00 0.58 0.00 52 1008.4
20260505121942 28 45 0.0 1.6 0.00 0.58 0.00 52 1008.5
20260505121355 28 0 0.0 3.2 0.00 0.58 0.00 52 1008.5
20260505120808 28 45 0.0 3.2 0.00 0.58 0.00 52 1008.5
20260505120221 28 315 0.0 0.0 0.00 0.58 0.00 52 1008.5
20260505115634 28 45 0.0 0.0 0.00 0.58 0.00 52 1008.6
20260505115047 28 315 0.0 0.0 0.00 0.58 0.00 52 1008.6
20260505114500 28 0 0.0 0.0 0.00 0.58 0.00 51 1008.6
20260505113913 28 45 0.0 1.6 0.00 0.58 0.00 51 1008.5
20260505113326 28 0 0.0 1.6 0.00 0.58 0.00 51 1008.5
20260505112739 28 45 0.0 1.6 0.00 0.58 0.00 51 1008.5
20260505112152 28 45 0.0 1.6 0.00 0.58 0.00 51 1008.5
20260505111605 28 0 0.0 1.6 0.00 0.58 0.00 51 1008.5
20260505111018 28 0 0.0 1.6 0.00 0.58 0.00 51 1008.5
20260505110431 28 315 0.0 3.2 0.00 0.58 0.00 51 1008.5
20260505101815 28 90 0.0 4.8 0.00 0.58 0.00 50 1008.7
20260505101228 28 270 0.0 4.8 0.00 0.58 0.00 50 1008.6
20260505100641 28 0 0.0 4.8 0.00 0.58 0.00 49 1008.7
20260505100054 28 0 0.0 1.6 0.00 0.58 0.00 49 1008.7
20260505095507 28 315 0.0 3.2 0.00 0.58 0.00 49 1008.6
20260505094920 28 90 0.0 3.2 0.00 0.58 0.00 49 1008.8
20260505094333 29 0 0.0 3.2 0.00 0.58 0.00 49 1008.7
20260505093745 29 0 0.0 3.2 0.00 0.58 0.00 49 1008.6
20260505093159 29 0 0.0 3.2 0.00 0.58 0.00 49 1008.3
20260505092611 29 90 0.0 4.8 0.00 0.58 0.00 49 1008.3
20260505092024 29 0 0.0 4.8 0.00 0.58 0.00 49 1008.4
20260505091437 29 90 0.0 3.2 0.00 0.58 0.00 49 1008.2
20260505090850 29 315 0.0 3.2 0.00 0.58 0.00 49 1008.3
20260505090303 29 45 0.0 3.2 0.00 0.58 0.00 49 1008.3
20260505085716 29 315 0.0 4.8 0.00 0.58 0.00 49 1008.1
20260505085129 30 45 0.0 3.2 0.03 0.58 0.00 49 1008.0
20260505084542 30 90 0.0 3.2 0.03 0.58 0.00 49 1008.0
20260505083955 30 0 0.0 3.2 0.03 0.58 0.00 49 1007.8
20260505083408 30 45 0.0 3.2 0.03 0.58 0.00 49 1007.7
20260505082821 30 270 0.0 1.6 0.03 0.58 0.00 49 1007.8
20260505082234 30 0 0.0 1.6 0.03 0.58 0.00 49 1007.8
20260505081647 30 135 0.0 3.2 0.03 0.58 0.00 49 1007.7
20260505081100 30 135 0.0 3.2 0.03 0.58 0.00 49 1007.9
20260505080513 30 270 0.0 1.6 0.03 0.58 0.00 49 1007.9
20260505075926 30 0 0.0 3.2 0.03 0.58 0.00 49 1007.9
20260505075339 30 90 0.0 3.2 0.00 0.56 0.00 49 1007.9
20260505074752 30 0 0.0 1.6 0.00 0.56 0.00 49 1007.9
20260505074205 30 0 0.0 1.6 0.00 0.56 0.00 49 1008.0
20260505073618 30 0 0.0 1.6 0.00 0.56 0.00 49 1007.9
20260505073031 30 315 0.0 1.6 0.00 0.56 0.00 49 1007.8
20260505072444 30 135 0.0 1.6 0.00 0.56 0.00 48 1008.0
20260505071857 30 315 0.0 3.2 0.00 0.56 0.00 49 1008.0
20260505071310 31 315 0.0 3.2 0.00 0.56 0.00 48 1008.0
20260505070723 31 315 0.0 1.6 0.00 0.56 0.00 48 1008.0
20260505070136 31 315 0.0 1.6 0.00 0.56 0.00 48 1007.9
20260505065549 31 0 0.0 1.6 0.00 0.56 0.00 48 1007.9
20260505065002 31 315 0.0 3.2 0.00 0.56 0.00 48 1008.1
20260505064415 31 135 0.0 3.2 0.00 0.56 0.00 49 1008.1
20260505063828 31 315 0.0 1.6 0.00 0.56 0.00 49 1008.0
20260505063241 31 90 0.0 3.2 0.00 0.56 0.00 49 1008.1
20260505062654 31 315 0.0 3.2 0.00 0.56 0.00 49 1008.1
20260505062107 31 225 0.0 4.8 0.00 0.56 0.00 50 1008.1
20260505061520 31 315 0.0 3.2 0.00 0.56 0.00 49 1008.1
20260505060932 31 315 0.0 1.6 0.00 0.56 0.00 50 1008.2
20260505060345 31 315 0.0 1.6 0.00 0.56 0.00 50 1008.2
20260505055758 31 315 0.0 1.6 0.00 0.56 0.00 51 1008.4
20260505055211 31 0 0.0 1.6 0.00 0.56 0.00 51 1008.4
20260505054624 30 315 0.0 1.6 0.00 0.56 0.00 51 1008.4
20260505054037 30 270 0.0 1.6 0.00 0.56 0.00 51 1008.4
20260505053450 30 270 0.0 1.6 0.00 0.56 0.00 51 1008.5
20260505052903 30 90 0.0 1.6 0.00 0.56 0.00 51 1008.9
20260505052316 30 0 0.0 1.6 0.00 0.56 0.00 51 1008.9
20260505051729 30 270 0.0 1.6 0.00 0.56 0.00 52 1008.9
20260505051142 30 315 0.0 1.6 0.00 0.56 0.00 52 1008.7
20260505050555 30 315 0.0 1.6 0.00 0.56 0.00 52 1009.1
20260505041352 30 0 0.0 0.0 0.00 0.56 0.00 50 1009.8
20260505040805 30 315 0.0 0.0 0.00 0.56 0.00 51 1009.9
20260505040218 30 270 0.0 0.0 0.00 0.56 0.00 50 1009.9
20260505035631 30 315 0.0 0.0 0.00 0.56 0.00 50 1009.9
20260505035044 30 90 0.0 1.6 0.00 0.56 0.00 50 1009.9
20260505034457 30 315 0.0 1.6 0.00 0.56 0.00 50 1010.1
20260505033910 30 45 0.0 1.6 0.00 0.56 0.00 50 1009.9
20260505033323 30 315 0.0 1.6 0.00 0.56 0.00 51 1009.9
20260505032736 30 315 0.0 1.6 0.03 0.56 0.00 51 1010.0
20260505032149 30 90 0.0 1.6 0.03 0.56 0.00 51 1010.0
20260505031602 30 315 0.0 1.6 0.03 0.56 0.00 51 1009.9
20260505031015 30 315 0.0 1.6 0.03 0.56 0.00 51 1009.9
20260505030428 30 315 0.0 1.6 0.03 0.56 0.00 51 1009.9
20260505025841 30 45 0.0 0.0 0.03 0.56 0.00 51 1010.0
20260505025254 30 0 0.0 1.6 0.03 0.56 0.00 50 1010.2
20260505024707 30 90 0.0 1.6 0.05 0.56 0.00 50 1010.2
20260505024120 30 0 0.0 1.6 0.23 0.56 0.00 49 1010.2
20260505023533 30 0 0.0 1.6 0.33 0.56 0.00 49 1010.4
20260505022945 30 270 0.0 0.0 0.46 0.51 0.00 49 1010.7
20260505022358 30 315 0.0 0.0 0.48 0.51 0.00 49 1010.6
20260505021811 30 0 0.0 0.0 0.48 0.51 0.00 49 1010.6
20260505021224 30 225 0.0 0.0 0.51 0.51 0.00 49 1010.6
20260505020637 29 270 0.0 0.0 0.51 0.51 0.00 49 1010.6
20260505020050 29 0 0.0 1.6 0.51 0.51 0.00 49 1010.5
20260505015503 29 0 0.0 1.6 0.51 0.51 0.00 48 1010.5
20260505014916 29 45 0.0 0.0 0.48 0.48 0.00 47 1010.5
20260505014329 29 315 0.0 0.0 0.36 0.36 0.00 47 1010.6
20260505013742 30 315 0.0 0.0 0.23 0.23 0.00 47 1010.5
20260505013155 30 270 0.0 0.0 0.13 0.13 0.00 46 1010.6
20260505012608 30 315 0.0 1.6 0.03 0.03 0.00 46 1010.6
20260505012021 30 270 0.0 1.6 0.03 0.03 0.00 46 1010.7
20260505011434 30 225 0.0 0.0 0.00 0.00 0.00 46 1010.7
20260505010847 30 270 0.0 0.0 0.00 0.00 0.00 46 1010.7
20260505010300 30 270 0.0 0.0 0.00 0.00 0.00 46 1010.6
20260505005713 30 270 0.0 0.0 0.00 0.00 0.00 46 1010.6
20260505005126 30 270 0.0 0.0 0.00 0.00 0.00 46 1010.4
20260505004539 30 270 0.0 0.0 0.00 0.00 0.00 46 1010.4
20260505003952 30 225 0.0 1.6 0.00 0.00 0.00 46 1010.4
20260505003405 30 225 0.0 1.6 0.00 0.00 0.00 46 1010.3
20260505002818 29 270 0.0 1.6 0.00 0.00 0.00 46 1010.2
20260505002231 29 315 0.0 1.6 0.00 0.00 0.00 46 1010.2
20260505001644 29 0 0.0 0.0 0.00 0.00 0.00 46 1010.1
20260505001057 29 0 0.0 1.6 0.00 0.00 0.00 47 1010.1
20260505000510 29 0 0.0 1.6 0.00 0.00 0.00 47 1010.1
20260504235923 29 315 0.0 1.6 0.00 0.00 0.00 47 1010.0
20260504235336 29 0 0.0 1.6 0.00 0.00 0.00 47 1009.8
20260504234749 29 0 0.0 1.6 0.00 0.00 0.00 46 1009.9
20260504234202 29 315 0.0 0.0 0.00 0.00 0.00 47 1009.8
20260504233615 29 0 0.0 0.0 0.00 0.00 0.00 47 1009.8
20260504233028 29 315 0.0 1.6 0.00 0.00 0.00 47 1010.1
20260504232441 29 315 0.0 1.6 0.00 0.00 0.00 47 1010.0
20260504231854 29 270 0.0 0.0 0.00 0.00 0.00 47 1010.1
20260504231307 28 315 0.0 0.0 0.00 0.00 0.00 47 1010.0
20260504230720 28 270 0.0 1.6 0.00 0.00 0.00 47 1009.8
20260504230132 28 270 0.0 1.6 0.00 0.00 0.00 47 1009.8
20260504225545 28 225 0.0 0.0 0.00 0.00 0.00 47 1009.7
20260504224959 28 0 0.0 0.0 0.00 0.00 0.00 47 1009.6
20260504224411 28 315 0.0 1.6 0.00 0.00 0.00 47 1009.4
20260504223824 28 315 0.0 1.6 0.00 0.00 0.00 47 1009.4
20260504223237 28 270 0.0 0.0 0.00 0.00 0.00 46 1009.6
20260504222650 28 270 0.0 0.0 0.00 0.00 0.00 46 1009.4
20260504222103 28 270 0.0 0.0 0.00 0.00 0.00 46 1009.5
20260504221516 28 270 0.0 0.0 0.00 0.00 0.00 46 1009.4
20260504220929 28 270 0.0 0.0 0.00 0.00 0.00 46 1009.3
20260504220342 28 270 0.0 0.0 0.00 0.00 0.00 45 1009.3
20260504215755 28 315 0.0 0.0 0.00 0.00 0.00 45 1009.1
20260504215208 28 315 0.0 0.0 0.00 0.00 0.00 45 1009.1
20260504214621 28 315 0.0 0.0 0.00 0.00 0.00 45 1009.2
20260504214034 28 315 0.0 0.0 0.00 0.00 0.00 45 1009.2
20260504213447 28 315 0.0 0.0 0.00 0.00 0.00 45 1009.1
20260504212900 28 315 0.0 1.6 0.00 0.00 0.00 45 1009.0
20260504212313 28 315 0.0 1.6 0.00 0.00 0.00 45 1009.0
20260504211726 28 0 0.0 0.0 0.00 0.00 0.00 45 1008.8
20260504211139 28 0 0.0 0.0 0.00 0.00 0.00 44 1008.9
20260504210552 28 270 0.0 0.0 0.00 0.00 0.00 44 1009.1
20260504210005 28 0 0.0 0.0 0.00 0.00 0.00 44 1008.9
20260504205418 28 315 0.0 0.0 0.00 0.00 0.00 44 1009.0
20260504204831 28 315 0.0 0.0 0.00 0.00 0.00 44 1009.0
20260504204244 28 315 0.0 0.0 0.00 0.00 0.00 44 1008.9
20260504203657 28 270 0.0 0.0 0.00 0.00 0.00 44 1008.9
20260504203110 28 270 0.0 0.0 0.00 0.00 0.00 44 1008.7
20260504202523 28 270 0.0 0.0 0.00 0.00 0.00 44 1008.8
20260504201936 28 270 0.0 0.0 0.00 0.00 0.00 44 1008.8
20260504201349 28 270 0.0 0.0 0.00 0.00 0.00 44 1008.7
20260504200802 28 270 0.0 0.0 0.00 0.00 0.00 43 1008.6
20260504200215 28 270 0.0 0.0 0.00 0.00 0.00 43 1008.6
20260504195628 28 270 0.0 0.0 0.00 0.00 0.00 43 1008.6
20260504195041 28 225 0.0 0.0 0.00 0.00 0.00 43 1008.5
20260504194453 28 225 0.0 0.0 0.00 0.00 0.00 43 1008.5
20260504193907 28 225 0.0 0.0 0.00 0.00 0.00 43 1008.6
20260504193319 28 225 0.0 0.0 0.00 0.00 0.00 43 1008.6
20260504192732 28 225 0.0 1.6 0.00 0.00 0.00 42 1008.5
20260504192145 28 225 0.0 1.6 0.00 0.00 0.00 42 1008.6
20260504191558 28 225 0.0 0.0 0.00 0.00 0.00 42 1008.5
20260504191011 28 270 0.0 0.0 0.00 0.00 0.00 42 1008.6
20260504190424 28 315 0.0 0.0 0.00 0.00 0.00 42 1008.4
20260504185837 28 270 0.0 0.0 0.00 0.00 0.00 42 1008.4
20260504185250 28 315 0.0 0.0 0.00 0.00 0.00 42 1008.5
20260504184703 29 270 0.0 0.0 0.00 0.00 0.00 42 1008.5
20260504184116 29 0 0.0 0.0 0.00 0.00 0.00 41 1008.4
20260504183529 29 315 0.0 0.0 0.00 0.00 0.00 41 1008.5
20260504182942 29 315 0.0 0.0 0.00 0.00 0.00 41 1008.8
20260504182355 29 315 0.0 0.0 0.00 0.00 0.00 41 1008.8
20260504181808 29 45 0.0 0.0 0.00 0.00 0.00 41 1008.8
20260504181221 29 270 0.0 0.0 0.00 0.00 0.00 41 1009.0
20260504180634 29 315 0.0 0.0 0.00 0.00 0.00 40 1009.1
20260504180047 29 315 0.0 0.0 0.00 0.00 0.00 40 1009.0
20260504175500 29 315 0.0 0.0 0.00 0.00 0.00 40 1009.0
20260504174913 29 0 0.0 1.6 0.00 0.00 0.00 40 1009.0
20260504174326 29 270 0.0 1.6 0.00 0.00 0.00 40 1009.1
20260504173739 29 270 0.0 1.6 0.00 0.00 0.00 40 1009.2
20260504173152 29 270 0.0 0.0 0.00 0.00 0.00 39 1009.3
20260504172605 29 315 0.0 0.0 0.00 0.00 0.00 39 1009.6
20260504172018 29 315 0.0 0.0 0.00 0.00 0.00 39 1009.6
20260504171431 29 270 0.0 0.0 0.00 0.00 0.00 39 1009.6
20260504170844 29 270 0.0 0.0 0.00 0.00 0.00 39 1009.7
20260504170257 29 225 0.0 0.0 0.00 0.00 0.00 39 1009.7